DW3835 Weather Reports


Display with metric or nautical units.
time (UTC)temp
F
wind
direction
speed
MPH
gust
MPH
rain 1hr
in
rain 24hr
in
rain mn
in
humidity
%
barometer
mb
20260507093118 54 172 0.0 3.0 0.00 0.00 0.00 91 1017.0
20260507091016 54 172 0.0 4.0 0.00 0.00 0.00 90 1017.2
20260507090010 54 169 0.0 3.0 0.00 0.00 0.00 90 1017.3
20260507085018 55 167 0.0 3.0 0.00 0.00 0.00 90 1017.3
20260507084040 54 178 0.0 2.0 0.00 0.00 0.00 90 1017.3
20260507083044 54 121 0.0 6.0 0.00 0.00 0.00 89 1017.4
20260507082019 55 153 0.0 3.0 0.00 0.00 0.00 89 1017.4
20260507074750 55 167 0.0 3.0 0.00 0.00 0.00 89 1017.3
20260507073759 55 152 0.0 2.0 0.00 0.00 0.00 89 1017.3
20260507072736 55 175 0.0 2.0 0.00 0.00 0.00 89 1017.4
20260507070601 55 159 0.0 1.0 0.00 0.00 0.00 89 1017.6
20260507065600 55 175 0.0 5.0 0.00 0.00 0.00 88 1017.6
20260507064530 56 169 0.0 1.0 0.00 0.00 0.00 88 1017.6
20260507063511 56 140 0.0 0.0 0.00 0.00 0.00 88 1017.6
20260507062522 56 177 0.0 1.0 0.00 0.00 0.00 88 1017.5
20260507060436 57 205 0.0 0.0 0.00 0.00 0.00 88 1017.5
20260507055438 57 143 0.0 1.0 0.00 0.00 0.00 87 1017.4
20260507054441 57 135 0.0 0.0 0.00 0.00 0.00 87 1017.4
20260507052242 57 193 0.0 0.0 0.00 0.00 0.00 87 1017.4
20260507051222 57 190 0.0 1.0 0.00 0.00 0.00 87 1017.3
20260507045134 58 184 0.0 2.0 0.00 0.00 0.00 86 1017.4
20260507044138 58 167 0.0 0.0 0.00 0.00 0.00 85 1017.2
20260507043111 58 155 0.0 0.0 0.00 0.00 0.00 85 1017.2
20260507042038 58 175 0.0 0.0 0.00 0.00 0.00 85 1017.1
20260507041021 58 140 0.0 0.0 0.00 0.00 0.00 85 1017.1
20260507040038 59 126 0.0 0.0 0.00 0.00 0.00 84 1017.0
20260507035010 59 173 0.0 0.0 0.00 0.00 0.00 84 1017.0
20260507034025 59 173 0.0 0.0 0.00 0.00 0.00 83 1016.9
20260507033031 60 239 0.0 0.0 0.00 0.00 0.00 82 1016.8
20260507032049 60 164 0.0 0.0 0.00 0.00 0.00 82 1016.8
20260507031107 61 120 0.0 0.0 0.00 0.00 0.00 81 1016.7
20260507024916 62 52 0.0 0.0 0.00 0.00 0.00 80 1016.6
20260507021621 63 34 0.0 0.0 0.00 0.00 0.00 77 1016.2
20260507015517 64 176 0.0 1.0 0.00 0.00 0.00 76 1016.1
20260507014528 65 59 0.0 1.0 0.00 0.00 0.00 75 1016.2
20260507013524 66 154 0.0 0.0 0.00 0.00 0.00 75 1016.1
20260507012456 66 178 0.0 1.0 0.00 0.00 0.00 74 1016.2
20260507011511 67 146 0.0 2.0 0.00 0.00 0.00 74 1016.1
20260507010511 67 115 0.0 0.0 0.00 0.00 0.00 73 1016.1
20260507005440 68 119 0.0 0.0 0.00 0.00 0.00 72 1016.2
20260507004435 68 182 0.0 5.0 0.00 0.00 0.00 71 1016.2
20260507002319 69 219 0.0 2.0 0.00 0.00 0.00 70 1016.1
20260507001248 70 135 0.0 4.0 0.00 0.00 0.00 69 1016.1
20260507000239 70 93 0.0 4.0 0.00 0.00 0.00 69 1016.2
20260506235216 70 120 0.0 3.0 0.00 0.00 0.00 67 1016.3
20260506233031 71 145 0.0 7.0 0.00 0.00 0.00 67 1016.2
20260506230946 71 57 0.0 6.0 0.00 0.00 0.00 68 1016.3
20260506230010 71 53 1.0 7.0 0.00 0.00 0.00 65 1016.4
20260506224947 71 140 1.0 8.0 0.00 0.00 0.00 65 1016.5
20260506223951 71 108 0.0 8.0 0.00 0.00 0.00 67 1016.7
20260506223015 71 85 0.0 5.0 0.00 0.00 0.00 67 1016.8
20260506221957 71 76 0.0 5.0 0.00 0.00 0.00 67 1016.9
20260506221022 71 185 1.0 5.0 0.00 0.00 0.00 68 1017.0
20260506220038 72 221 0.0 4.0 0.00 0.00 0.00 67 1017.2
20260506215014 72 142 0.0 5.0 0.00 0.00 0.00 67 1017.1
20260506213959 72 188 1.0 5.0 0.00 0.00 0.00 68 1017.2
20260506212933 71 247 1.0 5.0 0.00 0.00 0.00 70 1017.3
20260506211900 71 166 0.0 3.0 0.00 0.00 0.00 68 1017.4
20260506210917 71 148 0.0 3.0 0.00 0.00 0.00 69 1017.3
20260506205926 70 162 1.0 5.0 0.00 0.00 0.00 69 1017.4
20260506203805 70 184 0.0 5.0 0.00 0.00 0.00 70 1017.6
20260506202738 70 85 0.0 3.0 0.00 0.00 0.00 69 1017.8
20260506201729 69 161 0.0 2.0 0.00 0.00 0.00 71 1017.8
20260506200716 68 77 0.0 4.0 0.00 0.00 0.00 72 1018.0
20260506195641 69 177 0.0 4.0 0.00 0.00 0.00 71 1018.1
20260506194626 69 160 0.0 3.0 0.00 0.00 0.00 70 1018.1
20260506193604 69 150 0.0 3.0 0.00 0.00 0.00 72 1018.2
20260506192536 69 304 1.0 5.0 0.00 0.00 0.00 70 1018.3
20260506191553 68 92 0.0 5.0 0.00 0.00 0.00 73 1018.4
20260506190601 68 192 0.0 4.0 0.00 0.00 0.00 70 1018.4
20260506184449 68 244 0.0 2.0 0.00 0.00 0.00 70 1018.4
20260506183444 68 88 0.0 4.0 0.00 0.00 0.00 73 1018.5
20260506182417 67 88 0.0 4.0 0.00 0.00 0.00 70 1018.6
20260506181408 67 35 0.0 5.0 0.00 0.00 0.00 72 1018.6
20260506180432 67 109 0.0 5.0 0.00 0.00 0.00 72 1018.6
20260506175433 66 43 0.0 1.0 0.00 0.00 0.00 76 1018.5
20260506174448 64 91 0.0 0.0 0.00 0.00 0.00 75 1018.6
20260506173455 64 240 0.0 4.0 0.00 0.00 0.00 74 1018.6
20260506172451 65 265 0.0 3.0 0.00 0.00 0.00 74 1018.6
20260506171446 65 198 0.0 2.0 0.00 0.00 0.00 74 1018.7
20260506170431 64 98 0.0 3.0 0.00 0.00 0.00 75 1018.8
20260506165411 63 53 0.0 2.0 0.00 0.00 0.00 74 1018.7
20260506164341 63 165 0.0 2.0 0.00 0.00 0.00 75 1018.7
20260506163329 62 124 0.0 2.0 0.00 0.00 0.00 79 1018.7
20260506161224 61 306 0.0 1.0 0.00 0.00 0.00 80 1018.7
20260506160222 60 96 0.0 2.0 0.00 0.00 0.00 80 1018.9
20260506155201 59 154 0.0 2.0 0.00 0.00 0.00 81 1018.9
20260506154222 58 71 0.0 2.0 0.00 0.00 0.00 83 1018.9
20260506153150 58 148 0.0 2.0 0.00 0.00 0.00 82 1018.9
20260506152145 57 100 0.0 1.0 0.00 0.00 0.00 84 1018.9
20260506151145 57 86 0.0 1.0 0.00 0.00 0.00 86 1018.8
20260506150152 56 85 0.0 2.0 0.00 0.00 0.00 87 1018.9
20260506145124 56 94 0.0 1.0 0.00 0.00 0.00 88 1018.8
20260506144129 55 80 0.0 1.0 0.00 0.00 0.00 89 1018.7
20260506141942 54 33 0.0 0.0 0.00 0.00 0.00 90 1018.5
20260506141006 54 30 0.0 0.0 0.00 0.00 0.00 90 1018.6
20260506135943 54 30 0.0 0.0 0.00 0.00 0.00 90 1018.4
20260506134918 54 30 0.0 0.0 0.00 0.00 0.00 89 1018.2
20260506133910 54 30 0.0 0.0 0.00 0.00 0.00 89 1018.3
20260506132852 54 30 0.0 0.0 0.00 0.00 0.00 89 1018.2
20260506131824 54 30 0.0 0.0 0.00 0.00 0.00 89 1018.2
20260506125650 54 30 0.0 0.0 0.00 0.00 0.00 89 1018.0
20260506122350 54 30 0.0 0.0 0.00 0.00 0.00 89 1018.0
20260506121321 54 30 0.0 0.0 0.00 0.00 0.00 89 1017.8
20260506120303 54 30 0.0 0.0 0.00 0.00 0.00 89 1017.8
20260506115307 54 30 0.0 0.0 0.00 0.00 0.00 89 1017.8
20260506114327 54 30 0.0 0.0 0.00 0.00 0.00 89 1017.7
20260506112208 54 30 0.0 0.0 0.00 0.00 0.00 90 1017.5
20260506111226 54 30 0.0 0.0 0.00 0.00 0.00 89 1017.4
20260506110210 54 32 0.0 0.0 0.00 0.00 0.00 89 1017.4
20260506105217 54 32 0.0 0.0 0.00 0.00 0.00 89 1017.4
20260506103059 53 32 0.0 0.0 0.00 0.00 0.00 89 1017.4
20260506102120 53 33 0.0 0.0 0.00 0.00 0.00 89 1017.2
20260506101143 53 33 0.0 0.0 0.00 0.00 0.00 89 1017.2
20260506095041 53 33 0.0 0.0 0.00 0.00 0.00 89 1017.3